Effective Sunday, March 17, 2024, the National Weather Service National Data Buoy Center will discontinue its Dial-A-Buoy Interactive Voice Response system. For more information, see Service Change Notice 24-06 (PDF).

Station TCMW1 - 9446482 - Tacoma Met, WA Image indicating link to RSS feed of recent meteorological observations for station TCMW1


Conditions at TCMW1 as of
(10:30 pm PST on 02/21/2024)
0630 GMT on 02/22/2024:
     

Click on the graph icon in the table below to see a time series plot of the last five days of that observation.

5-day plot - Wind Direction Wind Direction (WDIR): SE ( 140 deg true )
5-day plot - Wind Speed Wind Speed (WSPD): 1.9 kts
5-day plot - Wind Gust Wind Gust (GST): 2.9 kts
5-day plot - Air Temperature Air Temperature (ATMP): 48.6 °F
5-day plot - Wind Speed at 10 Meters Wind Speed at 10 meters (WSPD10M): 1.9 kts
5-day plot - Wind Speed at 20 Meters Wind Speed at 20 meters (WSPD20M): 1.9 kts
5-day plot -  Wind Speed, Wind Gust and Atmospheric Pressure Combined plot of Wind Speed, Gust, and Air Pressure
NOS Water Level Observation Network Water Level
Previous observations
TIME
(PST)
5-day plot - Wind Direction
WDIR
 
5-day plot - Wind Speed
WSPD
kts
5-day plot - Wind Gust
GST
kts
5-day plot - Wave Height
WVHT
ft
5-day plot - Dominant Wave Period
DPD
sec
5-day plot - Average Wave Period
APD
sec
5-day plot - Mean Wave Direction
MWD
 
5-day plot - Atmospheric Pressure
PRES
in
5-day plot - Pressure Tendency
PTDY
in
5-day plot - Air Temperature
ATMP
°F
5-day plot - Water Temperature
WTMP
°F
5-day plot - Dew Point
DEWP
°F
5-day plot - Salinity
SAL
psu
5-day plot - Visibility
VIS
nmi
5-day plot - Tide (above MLLW)
TIDE
ft
2024-02-21 10:24 pm SE 2.9 4.1------ 48.7-----
2024-02-21 10:18 pmSSE 2.9 2.9------ 48.7-----
2024-02-21 10:12 pm SE 2.9 2.9------ 48.4-----
2024-02-21 10:06 pm SE 2.9 4.1------ 48.4-----
2024-02-21 10:00 pm SE 2.9 4.1------ 48.6-----
2024-02-21 09:54 pm SE 2.9 4.1------ 48.4-----
2024-02-21 09:48 pm SE 2.9 4.1------ 48.4-----
2024-02-21 09:42 pm SE 2.9 4.1------ 48.4-----
2024-02-21 09:36 pm SE 4.1 5.1------ 48.6-----
2024-02-21 09:30 pm SE 4.1 5.1------ 48.7-----
2024-02-21 09:24 pm SE 4.1 5.1------ 48.7-----
2024-02-21 09:18 pm SE 4.1 5.1------ 48.7-----
2024-02-21 09:12 pm SE 4.1 5.1------ 48.7-----
2024-02-21 09:06 pm SE 5.1 5.1------ 49.1-----
2024-02-21 09:00 pm SE 4.1 5.1------ 49.1-----
2024-02-21 08:54 pm SE 4.1 6.0------ 49.1-----
2024-02-21 08:48 pm SE 5.1 5.1------ 49.3-----
2024-02-21 08:42 pm SE 4.1 6.0------ 49.3-----
2024-02-21 08:36 pm SE 5.1 7.0------ 49.3-----
2024-02-21 08:30 pm SE 5.1 6.0------ 49.1-----
2024-02-21 08:24 pm SE 5.1 7.0------ 49.1-----
2024-02-21 08:18 pm SE 6.0 7.0------ 49.1-----
2024-02-21 08:12 pm SE 5.1 7.0------ 49.1-----
2024-02-21 08:06 pm SE 6.0 8.0------ 49.1-----
2024-02-21 08:00 pm SE 6.0 8.0------ 49.1-----
2024-02-21 07:54 pm SE 7.0 9.9------ 49.1-----
2024-02-21 07:48 pm SE 5.1 7.0------ 49.1-----
2024-02-21 07:42 pm SE 5.1 7.0------ 49.1-----
2024-02-21 07:36 pm SE 5.1 8.0------ 49.3-----
2024-02-21 07:30 pm SE 5.1 7.0------ 49.3-----
2024-02-21 07:24 pm SE 6.0 8.0------ 49.3-----
2024-02-21 07:18 pm SE 6.0 8.9------ 49.5-----
2024-02-21 07:12 pm SE 6.0 8.0------ 49.5-----
2024-02-21 07:06 pm SE 5.1 8.0------ 49.5-----
2024-02-21 07:00 pm SE 7.0 8.0------ 49.6-----
2024-02-21 06:54 pm SE 6.0 8.0------ 49.5-----
2024-02-21 06:48 pm SE 6.0 8.0------ 49.5-----
2024-02-21 06:42 pm SE 6.0 8.9------ 49.6-----
2024-02-21 06:36 pm SE 7.0 8.0------ 49.6-----
2024-02-21 06:30 pm SE 5.1 8.0------ 49.8-----
2024-02-21 06:24 pm SE 5.1 7.0------ 49.8-----
2024-02-21 06:18 pm SE 5.1 8.0------ 50.0-----
2024-02-21 06:12 pm SE 6.0 8.0------ 50.2-----
2024-02-21 06:06 pm SE 6.0 8.9------ 50.4-----
2024-02-21 06:00 pm SE 6.0 8.9------ 50.4-----
2024-02-21 05:54 pm SE 5.1 8.0------ 50.5-----
2024-02-21 05:48 pm SE 6.0 8.0------ 50.5-----
2024-02-21 05:42 pm SE 6.0 8.9------ 50.5-----
2024-02-21 05:36 pm SE 6.0 7.0------ 50.2-----
2024-02-21 05:30 pm SE 5.1 7.0------ 50.2-----
2024-02-21 05:24 pm SE 5.1 7.0------ 50.4-----
2024-02-21 05:18 pm SE 6.0 8.9------ 50.4-----
2024-02-21 05:12 pm SE 6.0 8.0------ 50.4-----
2024-02-21 05:06 pm SE 6.0 8.0------ 50.4-----
2024-02-21 05:00 pm SE 6.0 8.0------ 50.5-----
2024-02-21 04:54 pm SE 5.1 7.0------ 50.7-----
2024-02-21 04:48 pm SE 5.1 8.0------ 50.7-----
2024-02-21 04:42 pm SE 5.1 7.0------ 50.7-----
2024-02-21 04:36 pm SE 5.1 8.0------ 50.7-----
2024-02-21 04:30 pmSSE 5.1 8.0------ 51.1-----
2024-02-21 04:18 pmSSE 5.1 9.9------ 51.3-----
2024-02-21 04:12 pmSSE 6.0 8.9------ 51.4-----
2024-02-21 04:00 pmSSE 4.1 11.1------ 51.8-----
2024-02-21 03:30 pm S 5.1 9.9------ 52.7-----
2024-02-21 03:24 pmSSE 4.1 7.0------ 52.5-----
2024-02-21 03:12 pmSSE 6.0 8.0------ 52.3-----
2024-02-21 03:06 pm SE 6.0 9.9------ 52.5-----
2024-02-21 02:54 pmSSE 5.1 7.0------ 52.7-----
2024-02-21 02:30 pmSSE 5.1 9.9------ 52.7-----
2024-02-21 01:54 pm SE 9.9 12.0------ 51.3-----
2024-02-21 01:48 pm SE 9.9 12.0------ 51.4-----
2024-02-21 01:42 pm SE 7.0 9.9------ 51.4-----
2024-02-21 01:36 pm SE 6.0 9.9------ 51.1-----
2024-02-21 01:30 pm SE 7.0 9.9------ 50.9-----
2024-02-21 01:24 pm SE 8.0 9.9------ 50.5-----
2024-02-21 01:18 pm SE 6.0 8.9------ 50.4-----
2024-02-21 12:06 pm SE 5.1 6.0------ 49.3-----
2024-02-21 11:36 am SE 4.1 6.0------ 48.9-----
2024-02-21 11:30 am E 2.9 5.1------ 48.2-----
2024-02-21 11:12 am- 0.0 1.0------ 47.3-----
2024-02-21 11:06 am- 0.0 0.0------ 47.3-----
2024-02-21 10:42 am- 0.0 0.0------ 46.4-----
2024-02-21 10:36 am- 0.0 1.0------ 46.2-----
2024-02-21 10:30 amNNW 1.0 1.9------ 46.2-----
2024-02-21 10:24 amWNW 1.9 1.9------ 46.0-----
2024-02-21 10:18 amWNW 1.0 1.9------ 46.0-----
2024-02-21 10:12 amWNW 1.0 2.9------ 46.0-----
2024-02-21 10:06 amNNW 1.9 2.9------ 45.9-----
2024-02-21 10:00 am W 1.9 2.9------ 46.0-----
2024-02-21 09:54 am NW 1.9 2.9------ 45.9-----
2024-02-21 09:48 am NW 2.9 2.9------ 45.9-----
2024-02-21 09:42 amWNW 1.0 1.9------ 46.0-----
2024-02-21 09:36 am SW 1.0 1.0------ 46.2-----
2024-02-21 09:30 am- 0.0 1.9------ 46.0-----
2024-02-21 09:24 am SW 1.9 2.9------ 46.0-----
2024-02-21 09:18 am W 1.0 1.9------ 46.0-----
2024-02-21 09:12 am- 0.0 1.0------ 46.0-----
2024-02-21 09:06 am- 0.0 1.0------ 46.2-----
2024-02-21 09:00 am S 1.0 2.9------ 46.2-----
2024-02-21 08:54 amENE 1.9 2.9------ 46.0-----
2024-02-21 08:48 am S 1.9 4.1------ 46.0-----
2024-02-21 08:42 amSSE 1.9 2.9------ 45.9-----
2024-02-21 08:36 am- 0.0 1.0------ 45.9-----
2024-02-21 08:30 am- 0.0 0.0------ 45.9-----
2024-02-21 08:24 am- 0.0 1.0------ 45.9-----
2024-02-21 08:18 am NE 1.0 1.9------ 45.7-----
2024-02-21 08:12 am- 0.0 1.0------ 45.9-----
2024-02-21 08:06 am- 0.0 1.0------ 45.7-----
2024-02-21 08:00 am SE 1.0 1.9------ 45.7-----
2024-02-21 07:54 amSSW 1.0 1.9------ 45.7-----
2024-02-21 07:48 am- 0.0 1.9------ 45.7-----
2024-02-21 07:42 am E 1.0 1.9------ 45.7-----
2024-02-21 07:36 am SE 1.9 4.1------ 45.5-----
2024-02-21 07:30 am SE 2.9 4.1------ 45.5-----
2024-02-21 07:24 amESE 1.0 1.9------ 45.5-----
2024-02-21 07:18 am SE 1.9 2.9------ 45.3-----
2024-02-21 07:12 am S 1.9 2.9------ 45.5-----
2024-02-21 07:06 am S 1.0 1.9------ 45.3-----
2024-02-21 07:00 am E 1.9 4.1------------
2024-02-21 06:54 am E 2.9 5.1------------
2024-02-21 06:48 am E 2.9 4.1------ 45.7-----
2024-02-21 06:42 am SE 2.9 2.9------ 45.7-----
2024-02-21 06:36 amSSE 1.0 4.1------ 45.7-----
2024-02-21 06:30 amESE 4.1 5.1------ 45.7-----
2024-02-21 06:24 am SE 4.1 5.1------ 45.7-----
2024-02-21 06:18 amSSE 1.9 2.9------ 45.7-----
2024-02-21 06:12 am E 1.0 2.9------ 45.5-----
2024-02-21 06:06 am E 1.9 1.9------ 45.7-----
2024-02-21 06:00 am SE 1.9 1.9------ 45.5-----
2024-02-21 05:54 am- 0.0 2.9------ 45.5-----
2024-02-21 05:48 amSSE 1.9 1.9------ 45.5-----
2024-02-21 05:42 am SE 1.0 1.0------ 45.5-----
2024-02-21 05:36 am- 0.0 1.9------ 45.5-----
2024-02-21 05:30 am- 0.0 1.9------ 45.5-----
2024-02-21 05:24 am- 0.0 1.9------ 45.5-----
2024-02-21 05:18 am S 1.9 2.9------ 45.5-----
2024-02-21 05:12 am- 0.0 0.0------ 45.7-----
2024-02-21 05:06 am- 0.0 1.0------ 45.7-----
2024-02-21 05:00 am- 0.0 0.0------ 45.7-----
2024-02-21 04:54 am- 0.0 0.0------ 45.7-----
2024-02-21 04:48 am- 0.0 0.0------ 45.7-----
2024-02-21 04:42 am- 0.0 1.0------ 45.9-----
2024-02-21 04:36 am SW 1.9 4.1------ 45.9-----
2024-02-21 04:30 am W 4.1 4.1------ 45.9-----
2024-02-21 04:24 am SW 2.9 2.9------ 45.9-----
2024-02-21 04:18 am S 1.0 1.9------ 45.9-----
2024-02-21 04:12 amSSE 1.0 2.9------ 46.0-----
2024-02-21 04:06 am E 1.9 1.9------ 46.0-----
2024-02-21 04:00 am SE 1.0 1.9------ 46.0-----
2024-02-21 03:54 am- 0.0 1.0------ 46.2-----
2024-02-21 03:48 am- 0.0 1.0------ 46.2-----
2024-02-21 03:42 am- 0.0 1.9------ 46.2-----
2024-02-21 03:36 amESE 1.0 1.9------ 46.0-----
2024-02-21 03:30 amESE 1.0 1.9------ 46.0-----
2024-02-21 03:24 amESE 1.9 1.9------ 46.0-----
2024-02-21 03:18 am SE 1.9 1.9------ 46.0-----
2024-02-21 03:12 am S 1.9 4.1------ 46.2-----
2024-02-21 03:06 am W 1.0 1.9------ 46.4-----
2024-02-21 03:00 amSSE 1.0 2.9------ 46.4-----
2024-02-21 02:54 am E 2.9 4.1------ 46.2-----
2024-02-21 02:48 amESE 2.9 2.9------ 46.2-----
2024-02-21 02:42 am E 1.9 2.9------ 46.2-----
2024-02-21 02:36 amESE 1.9 4.1------ 46.2-----
2024-02-21 02:30 am SE 2.9 5.1------ 46.2-----
2024-02-21 02:24 amESE 5.1 6.0------ 46.4-----
2024-02-21 02:18 amESE 5.1 7.0------ 46.4-----
2024-02-21 02:12 am SE 5.1 7.0------ 46.4-----
2024-02-21 02:06 am SE 5.1 6.0------ 46.4-----
2024-02-21 02:00 am SE 4.1 5.1------ 46.6-----
2024-02-21 01:54 amESE 2.9 4.1------ 46.9-----
2024-02-21 01:48 amENE 1.9 4.1------ 46.9-----
2024-02-21 01:42 am N 4.1 4.1------ 46.8-----
2024-02-21 01:36 am N 2.9 4.1------ 46.6-----
2024-02-21 01:30 am N 2.9 4.1------ 46.4-----
2024-02-21 01:24 am N 2.9 2.9------ 46.6-----
2024-02-21 01:18 am- 0.0 1.0------ 46.8-----
2024-02-21 01:12 am- 0.0 1.0------ 46.8-----
2024-02-21 01:06 am- 0.0 1.9------ 46.8-----
2024-02-21 01:00 am E 1.9 1.9------ 46.8-----
2024-02-21 12:54 am- 0.0 1.9------ 46.8-----
2024-02-21 12:48 am E 1.9 2.9------ 46.8-----
2024-02-21 12:42 am E 1.9 4.1------ 46.8-----
2024-02-21 12:36 amENE 1.9 5.1------ 46.8-----
2024-02-21 12:30 amENE 5.1 5.1------ 46.8-----
2024-02-21 12:24 amENE 2.9 2.9------ 46.8-----
2024-02-21 12:18 am E 1.9 1.9------ 47.3-----
2024-02-21 12:12 am E 2.9 4.1------ 47.3-----
2024-02-21 12:06 am SE 4.1 5.1------ 47.3-----
2024-02-21 12:00 am SE 2.9 4.1------ 47.1-----
2024-02-20 11:54 pm S 2.9 4.1------ 47.3-----
2024-02-20 11:48 pmSSW 4.1 5.1------ 47.7-----
2024-02-20 11:42 pmSSW 1.9 2.9------ 47.5-----
2024-02-20 11:36 pm- 0.0 1.0------ 47.7-----
2024-02-20 11:30 pm- 0.0 1.0------ 47.5-----
2024-02-20 11:24 pm- 0.0 1.0------ 47.7-----
2024-02-20 11:18 pm E 1.0 2.9------ 47.8-----
2024-02-20 11:12 pmENE 4.1 5.1------ 47.8-----
2024-02-20 11:06 pm E 1.9 2.9------ 48.2-----
2024-02-20 11:00 pmESE 2.9 5.1------------
2024-02-20 10:54 pm SE 2.9 4.1------------